Youngstown, OH

10:27 PM EST on December 11, 2019 (GMT -0500)
Youngstown-Warren Regional

Weather History for KYNG - September, 2019

Change the Weather History Date:

Saturday, September 7, 2019

  Actual Average Record
Temperature  
Mean Temperature 63 °F 65 °F  
Max Temperature 75 °F 76 °F 91 °F (1985)
Min Temperature 51 °F 54 °F 39 °F (1986)
Degree Days  
Heating Degree Days 2 2  
Month to date heating degree days 8 14  
Since 1 July heating degree days 14 52  
Cooling Degree Days 0 3  
Month to date cooling degree days 14 21  
Year to date cooling degree days 678 507  
Growing Degree Days 13 (Base 50)    
Moisture  
Dew Point 54 °F    
Average Humidity 78    
Maximum Humidity 94    
Minimum Humidity 46    
Precipitation  
Precipitation T in 0.13 in 1.45 in (1989)
Month to date precipitation 0.67 0.87  
Year to date precipitation 35.19 27.09  
Snow  
Snow 0.00 in 0.00 in - ()
Month to date snowfall 0.0 0.0  
Since 1 July snowfall 0.0 0.0  
Since 1 September snowfall 0.0 0.0  
Snow Depth 0.00 in    
Sea Level Pressure  
Sea Level Pressure 29.95 in    
Wind  
Wind Speed 4 mph ()    
Max Wind Speed 17 mph    
Max Gust Speed 22 mph    
Visibility 8.0 miles    
Events Fog    
T = Trace of Precipitation, MM = Missing Value Source: Averaged Metar Reports

Daily Weather History Graph

Daily Weather History Graph

Search for Another Location

Airport or City:

Astronomy

Sep. 07, 2019 Rise Set
Actual Time 6:54 AM EDT 7:45 PM EDT
Civil Twilight 6:26 AM EDT 8:13 PM EDT
Nautical Twilight 5:53 AM EDT 8:47 PM EDT
Astronomical Twilight 5:18 AM EDT 9:21 PM EDT
Moon 4:03 PM EDT (9/7) 12:43 AM EDT (9/7)
Length of Visible Light 13h 47m
Length of Day
12h 51m
Waxing Gibbous, 65% of the Moon is Illuminated
Sep 7
Waxing Gibbous
Sep 14
Full
Sep 21
Last Quarter
Sep 28
New
Oct 5
First Quarter

Hourly Weather History & Observations

Time (EDT) Temp. Dew Point Humidity Pressure Visibility Wind Dir Wind Speed Gust Speed Precip Events Conditions
12:51 AM 55.0 °F 52.0 °F 89% 29.89 in 10.0 mi West 3.5 mph - N/A   Partly Cloudy
1:51 AM 57.0 °F 53.1 °F 87% 29.90 in 10.0 mi West 3.5 mph - N/A   Mostly Cloudy
2:51 AM 55.0 °F 53.1 °F 93% 29.90 in 9.0 mi Calm Calm - N/A   Scattered Clouds
3:51 AM 55.0 °F 52.0 °F 89% 29.89 in 5.0 mi Calm Calm - N/A Fog Partly Cloudy
4:23 AM 54.0 °F 51.1 °F 90% 29.91 in 2.5 mi Calm Calm - N/A Fog Partly Cloudy
4:33 AM 54.0 °F 52.0 °F 93% 29.91 in 0.2 mi Calm Calm - N/A Fog Fog
4:51 AM 55.0 °F 53.1 °F 93% 29.91 in 0.1 mi SW 3.5 mph - N/A Fog Fog
5:45 AM 53.6 °F 51.8 °F 94% 29.92 in 4.0 mi Calm Calm - N/A Fog Scattered Clouds
5:51 AM 54.0 °F 52.0 °F 93% 29.92 in 4.0 mi Calm Calm - N/A Fog Scattered Clouds
6:51 AM 53.1 °F 51.1 °F 93% 29.94 in 4.0 mi Calm Calm - N/A Fog Scattered Clouds
7:51 AM 57.0 °F 55.0 °F 93% 29.94 in 5.0 mi SSE 3.5 mph - N/A   Mostly Cloudy
8:51 AM 59.0 °F 57.0 °F 93% 29.96 in 9.0 mi SW 3.5 mph - N/A   Mostly Cloudy
9:33 AM 63.0 °F 57.9 °F 84% 29.96 in 10.0 mi SW 3.5 mph - N/A   Overcast
9:51 AM 63.0 °F 57.0 °F 81% 29.96 in 10.0 mi SW 6.9 mph - N/A   Overcast
10:51 AM 64.9 °F 59.0 °F 81% 29.96 in 10.0 mi WSW 5.8 mph - 0.00 in   Overcast
11:16 AM 68.0 °F 59.0 °F 73% 29.97 in 10.0 mi West 9.2 mph - N/A   Overcast
11:51 AM 68.0 °F 57.9 °F 70% 29.95 in 10.0 mi WNW 10.4 mph - N/A   Mostly Cloudy
12:51 PM 70.0 °F 57.9 °F 65% 29.95 in 10.0 mi NW 13.8 mph - N/A   Mostly Cloudy
1:51 PM 71.1 °F 57.0 °F 61% 29.95 in 10.0 mi NW 12.7 mph - N/A   Mostly Cloudy
2:51 PM 73.0 °F 55.0 °F 53% 29.94 in 10.0 mi West 11.5 mph - N/A   Mostly Cloudy
3:51 PM 75.0 °F 54.0 °F 48% 29.95 in 10.0 mi WNW 12.7 mph 19.6 mph N/A   Mostly Cloudy
4:51 PM 73.0 °F 53.1 °F 49% 29.95 in 10.0 mi WNW 13.8 mph 19.6 mph N/A   Mostly Cloudy
5:51 PM 72.0 °F 53.1 °F 51% 29.96 in 10.0 mi WNW 10.4 mph - N/A   Mostly Cloudy
6:51 PM 70.0 °F 54.0 °F 57% 29.98 in 10.0 mi WNW 8.1 mph - N/A   Mostly Cloudy
7:51 PM 64.0 °F 54.0 °F 70% 29.99 in 10.0 mi NW 5.8 mph - N/A   Mostly Cloudy
8:51 PM 62.1 °F 54.0 °F 75% 30.01 in 10.0 mi WNW 4.6 mph - N/A   Scattered Clouds
9:51 PM 60.1 °F 53.1 °F 78% 30.01 in 10.0 mi West 4.6 mph - N/A   Scattered Clouds
10:51 PM 55.9 °F 53.1 °F 90% 30.01 in 10.0 mi Calm Calm - N/A   Scattered Clouds
11:51 PM 55.9 °F 53.1 °F 90% 30.01 in 10.0 mi SSW 3.5 mph - N/A   Scattered Clouds